TimeEDT,TemperatureF,Dew PointF,Humidity,Sea Level PressureIn,VisibilityMPH,Wind Direction,Wind SpeedMPH,Gust SpeedMPH,PrecipitationIn,Events,Conditions,WindDirDegrees,DateUTC
12:53 AM,73.0,71.1,93,30.14,10.0,East,3.5,-,N/A,,Clear,90,2013-08-21 04:53:00
1:53 AM,73.0,70.0,90,30.13,10.0,East,3.5,-,N/A,,Clear,80,2013-08-21 05:53:00
2:53 AM,72.0,70.0,93,30.12,10.0,Calm,Calm,-,N/A,,Clear,0,2013-08-21 06:53:00
3:20 AM,73.4,69.8,88,30.15,10.0,Calm,Calm,-,N/A,,Mostly Cloudy,0,2013-08-21 07:20:00
3:53 AM,73.0,70.0,90,30.12,10.0,Calm,Calm,-,N/A,,Mostly Cloudy,0,2013-08-21 07:53:00
4:01 AM,71.6,69.8,94,30.15,10.0,Calm,Calm,-,N/A,,Scattered Clouds,0,2013-08-21 08:01:00
4:53 AM,71.1,70.0,96,30.11,10.0,Calm,Calm,-,N/A,,Clear,0,2013-08-21 08:53:00
5:19 AM,71.6,69.8,94,30.15,10.0,Calm,Calm,-,N/A,,Mostly Cloudy,0,2013-08-21 09:19:00
5:53 AM,71.1,70.0,96,30.14,9.0,Calm,Calm,-,N/A,,Mostly Cloudy,0,2013-08-21 09:53:00
6:26 AM,71.6,69.8,94,30.19,10.0,Calm,Calm,-,N/A,,Scattered Clouds,0,2013-08-21 10:26:00
6:53 AM,72.0,69.1,91,30.15,10.0,Calm,Calm,-,N/A,,Partly Cloudy,0,2013-08-21 10:53:00
7:53 AM,71.1,69.1,93,30.18,10.0,Calm,Calm,-,N/A,,Overcast,0,2013-08-21 11:53:00
8:12 AM,71.6,69.8,94,30.21,10.0,Calm,Calm,-,N/A,,Overcast,0,2013-08-21 12:12:00
8:51 AM,71.6,69.8,94,30.23,10.0,Calm,Calm,-,N/A,Thunderstorm,Overcast,0,2013-08-21 12:51:00
8:53 AM,72.0,68.0,87,30.19,10.0,ESE,3.5,-,N/A,Thunderstorm,Overcast,110,2013-08-21 12:53:00
9:01 AM,71.6,69.8,94,30.22,10.0,SSE,3.5,-,N/A,Thunderstorm,Overcast,150,2013-08-21 13:01:00
9:12 AM,71.6,69.8,94,30.23,6.0,Calm,Calm,-,0.01,Rain,Light Rain,0,2013-08-21 13:12:00
9:53 AM,72.0,69.1,91,30.20,8.0,Calm,Calm,-,0.03,Rain,Light Rain,0,2013-08-21 13:53:00
10:53 AM,75.0,70.0,84,30.20,10.0,SE,6.9,-,0.00,,Overcast,140,2013-08-21 14:53:00
11:39 AM,78.8,69.8,74,30.24,10.0,Variable,6.9,-,N/A,,Overcast,0,2013-08-21 15:39:00
11:53 AM,78.1,70.0,76,30.21,10.0,ESE,6.9,-,N/A,,Overcast,110,2013-08-21 15:53:00
12:53 PM,82.0,71.1,69,30.19,10.0,SE,6.9,-,N/A,,Mostly Cloudy,140,2013-08-21 16:53:00
1:53 PM,80.1,71.1,74,30.17,10.0,SSE,3.5,-,N/A,,Overcast,160,2013-08-21 17:53:00
2:07 PM,80.6,71.6,74,30.21,9.0,Calm,Calm,-,N/A,,Overcast,0,2013-08-21 18:07:00
2:53 PM,81.0,71.1,72,30.16,8.0,Variable,3.5,-,N/A,,Partly Cloudy,0,2013-08-21 18:53:00
3:53 PM,82.9,72.0,69,30.14,8.0,Calm,Calm,-,N/A,,Scattered Clouds,0,2013-08-21 19:53:00
4:35 PM,82.4,69.8,66,30.16,9.0,Variable,3.5,-,N/A,Thunderstorm,Mostly Cloudy,0,2013-08-21 20:35:00
4:53 PM,84.0,71.1,65,30.12,10.0,ESE,5.8,-,N/A,Thunderstorm,Mostly Cloudy,120,2013-08-21 20:53:00
5:08 PM,84.2,71.6,66,30.16,10.0,Calm,Calm,-,N/A,,Scattered Clouds,0,2013-08-21 21:08:00
5:53 PM,82.0,72.0,71,30.12,10.0,ENE,5.8,-,N/A,,Mostly Cloudy,60,2013-08-21 21:53:00
6:53 PM,82.0,72.0,71,30.10,10.0,Variable,4.6,-,N/A,,Clear,0,2013-08-21 22:53:00
7:53 PM,78.1,73.0,84,30.11,10.0,Calm,Calm,-,N/A,,Clear,0,2013-08-21 23:53:00
8:53 PM,75.0,72.0,90,30.12,10.0,Calm,Calm,-,N/A,,Clear,0,2013-08-22 00:53:00
9:53 PM,73.9,72.0,93,30.16,8.0,Calm,Calm,-,N/A,,Overcast,0,2013-08-22 01:53:00
10:53 PM,73.9,72.0,93,30.14,8.0,Calm,Calm,-,N/A,,Clear,0,2013-08-22 02:53:00
11:53 PM,73.0,71.1,93,30.14,6.0,Calm,Calm,-,N/A,,Partly Cloudy,0,2013-08-22 03:53:00